Location: Unspecified
(0.0000°N, 0.0000°E)
Time: 01:27:30
(UTC+00:00)

Altair - Pass Details

Date: 23 November 2019
Orbit: 1502 x 1682 km, 47.2° (Epoch: 10 December)

Event Time Altitude Azimuth Distance (km) Brightness Sun altitude
Rises 12:54:27 0° 278° (W) 4,814 10.3 63.7°
Reaches altitude 10° 12:59:28 10° 256° (WSW) 3,866 10.1 62.9°
Maximum altitude 13:04:34 15° 225° (SW) 3,500 10.1 62.1°
Drops below altitude 10° 13:09:46 10° 193° (SSW) 3,925 10.2 61.2°
Sets 13:15:02 0° 171° (S) 4,930 10.4 60.3°
